Aeroporto :
LOGIN :

Iscrizione | Disclaimer

   EN    FR    IT 

 










Sommario :    VFR   VFR Marginale   IFR   IFR Intensivo   IFR Molto Intensivo
Visibilità : 
Base nubi : 
>= 8 km
>= 3000ft
5 / 8 km
1000 / 3000 ft
1500m / 5 km
500 / 1000 ft
800 / 1500m
200 / 500 ft
< 800m
< 200 ft
Simboli :   Temporali  Nebbia  Neve Forte  Precipitazioni Forti  Vento > 20 kt
SIGMETs :   Varie  Temporali  Ghiacco  Turbolenza  Onda orograficha  Ceneri Vulcaniche






- Altitudine del aeroporto : 113 ft


EKRS - Ringsted

ULTIMO METAR :
  • 261720Z AUTO 24007KT 180V320 9999 BKN046/// BKN062/// 18/M39 Q1034

METARs OBSOLETI :
  • 261650Z AUTO VRB05KT 9999 BKN045/// OVC070/// 18/M39 Q1034
  • 261620Z AUTO 24004KT 200V300 9999 BKN042/// 18/M39 Q1034
  • 261550Z AUTO VRB02KT 9999 BKN043/// OVC066/// 19/M38 Q1034
  • 261520Z AUTO VRB02KT 9999 SCT038/// BKN210/// 19/M39 Q1034
  • 261450Z AUTO VRB03KT 9999 NCD 19/M39 Q1034

TAF N/A



MetMap, La meteo Aeronautica in un colpo d'occhio ! - Copyright ORBIFLY Dicembre 2007 - Disclaimer

ORBIFLY MET'MAP TEAM :

Programmazione e sviluppo : Alexandra Zaïnal
Concezione : Baudouin d'Aumeries
Aiuto per la programmazione : Marc-Olivier Méhu
Supporto tecnico e logistico : Manuel Goepfert
Aiuto per la traduzione : Arnaldo La Scala

Contatto : metmap@orbifly.com




FONTI E CREDITI :

   NOAA